This demonstration page uses our WeatherBlox Daily Observations layout. Learn more.

Left ArrowRight Arrow

Hourly Observations for May 10, 2020

Temp ( °F °C ) Dew Point ( °F °C ) Humidity (%) Winds ( mph kmh ) Pressure ( in mb ) Visibility ( mi km ) Precip ( " mm )
12:52 am 00:52 Mostly Clear 48 8.9 42 5.6 80 80 S 3 6 30.18 1022 10 16 0.00 0.00
1:52 am 01:52 Mostly Clear 46 7.8 41 5 83 83 SSW 3 6 30.17 1022 10 16 0.00 0.00
2:52 am 02:52 Mostly Clear 45 7.2 41 5 86 86 SW 5 7 30.16 1021 10 16 0.00 0.00
3:52 am 03:52 Cloudy 48 8.9 42 5.6 80 80 SW 7 11 30.17 1022 10 16 0.00 0.00
4:52 am 04:52 Partly Cloudy 49 9.4 41 5 74 74 W 7 11 30.18 1022 10 16 0.00 0.00
5:52 am 05:52 Partly Cloudy 49 9.4 41 5 74 74 WNW 6 9 30.18 1022 10 16 0.00 0.00
6:52 am 06:52 Partly Cloudy 48 8.9 43 6.1 83 83 NW 6 9 30.21 1023 10 16 0.00 0.00
7:52 am 07:52 Mostly Cloudy 49 9.4 43 6.1 80 80 NW 7 11 30.24 1024 10 16 0.00 0.00
8:52 am 08:52 Mostly Sunny 50 10 36 2.2 59 59 NW 17 28 30.26 1025 10 16 0.00 0.00
9:52 am 09:52 Sunny 50 10 37 2.8 61 61 NW 13 20 30.27 1025 10 16 0.00 0.00
10:52 am 10:52 Sunny 53 11.7 39 3.9 59 59 NW 15 24 30.28 1025 10 16 0.00 0.00
11:52 am 11:52 Sunny 54 12.2 38 3.3 55 55 NW 14 22 30.29 1026 10 16 0.00 0.00
12:52 pm 12:52 Sunny 56 13.3 38 3.3 51 51 NW 15 24 30.29 1026 10 16 0.00 0.00
1:52 pm 13:52 Sunny 58 14.4 38 3.3 48 48 N 15 24 30.27 1025 10 16 0.00 0.00
2:52 pm 14:52 Sunny 58 14.4 38 3.3 48 48 NW 12 19 30.27 1025 10 16 0.00 0.00
3:52 pm 15:52 Sunny 60 15.6 40 4.4 47 47 NW 13 20 30.25 1024 10 16 0.00 0.00
4:52 pm 16:52 Sunny 60 15.6 36 2.2 41 41 NNW 16 26 30.24 1024 10 16 0.00 0.00
5:52 pm 17:52 Sunny 59 15 34 1.1 39 39 NNW 16 26 30.24 1024 10 16 0.00 0.00
6:52 pm 18:52 Mostly Sunny 57 13.9 35 1.7 44 44 NW 10 17 30.24 1024 10 16 0.00 0.00
7:52 pm 19:52 Sunny 54 12.2 35 1.7 49 49 WNW 5 7 30.24 1024 10 16 0.00 0.00
8:52 pm 20:52 Clear 52 11.1 34 1.1 50 50 WNW 5 7 30.25 1025 10 16 0.00 0.00
9:52 pm 21:52 Clear 50 10 34 1.1 54 54 W 5 7 30.28 1025 10 16 0.00 0.00
10:52 pm 22:52 Clear 49 9.4 34 1.1 56 56 W 5 7 30.29 1026 10 16 0.00 0.00
11:52 pm 23:52 Clear 48 8.9 34 1.1 58 58 W 6 9 30.29 1026 10 16 0.00 0.00

Powered by AerisWeather